Regional Weather Roundup
Issued by NWS

Home | Current Version | Previous Version | Text Only | Print | Product List | Glossary Off
Versions: 1 2 3 4 5 6 7 8 9 10 11 12 13 14 15 16 17 18 19 20 21 22 23 24 25 26 27 28 29 30 31 32 33 34 35 36 37 38 39 40 41 42 43 44 45 46 47 48 49 50

000
ASUS43 KDMX 301107
RWRIA

WEATHER ROUNDUP FOR IOWA
NATIONAL WEATHER SERVICE DES MOINES IA
600 AM CDT SAT AUG 30 2014

NOTE: "FAIR" INDICATES FEW OR NO CLOUDS BELOW 12,000 FEET WITH NO
SIGNIFICANT WEATHER AND/OR OBSTRUCTIONS TO VISIBILITY.

* - THESE STATIONS ARE NOT NWS STATIONS...THUS NOT UNDER NWS
QUALITY CONTROL.  THEY ALSO DO NOT REPORT WEATHER SUCH
AS PRECIPITATION OR FOG.

IAZ001>003-012>014-020>022-031>034-043>046-301200-
   NORTHWEST IOWA

CITY           SKY/WX    TMP DP  RH WIND       PRES   REMARKS
CARROLL *      CLOUDY    66  66 100 NW9       29.86R
CHEROKEE *     PTCLDY    61  61 100 CALM      29.87R FOG
DENISON *      CLOUDY    66  66 100 NW6       29.86S FOG
LE MARS *        N/A     66  64  94 VRB7      29.89R
ORANGE CITY *  CLOUDY    66  64  94 NW9       29.88R FOG
SHELDON *      FOG       63  63 100 NW3       29.87R VSB 0
SIOUX CITY     CLOUDY    66  65  96 NW10G18   29.88R
SPENCER        CLEAR     62  61  96 W5        29.86R FOG
STORM LAKE *   CLOUDY    64  64 100 W5        29.87R FOG
$$

IAZ055>058-069>071-079>083-090>094-301200-
   SOUTHWEST IOWA

CITY           SKY/WX    TMP DP  RH WIND       PRES   REMARKS
ATLANTIC *     MOCLDY    66  66 100 NW5       29.88R FOG
AUDUBON *      CLOUDY    68  66  94 W6        29.89R
CLARINDA *     FOG       66  66 100 CALM      29.90R VSB 1/2
COUNCIL BLFS * CLEAR     63  63 100 W3        29.89R
CRESTON *      CLOUDY    66  66 100 W9        29.88S FOG
HARLAN  *      CLOUDY    66  66 100 NW5G12    29.92R FOG
LAMONI         CLEAR     65  64  97 W6        29.88R
RED OAK *      FOG       64  64 100 CALM      29.89R VSB<1/4
SHENANDOAH *   FOG       63  63 100 W6        29.90R VSB 1/4
$$

IAZ047>049-059>061-072>074-084-301200-
   CENTRAL IOWA

CITY           SKY/WX    TMP DP  RH WIND       PRES   REMARKS
AMES           CLOUDY    66  65  96 W7        29.83R
ANKENY *       CLOUDY    66  66 100 W5        29.84R
CHARITON *     PTCLDY    64  64 100 SW7       29.86S
DES MOINES     CLOUDY    67  64  90 W5        29.84R
GRINNELL*      CLOUDY    66  64  94 W8        29.84R
KNOXVILLE *    CLEAR     64  63  94 W8        29.84R
MARSHALLTOWN   CLOUDY    67  65  93 W9        29.81R
PELLA *        PTCLDY    66  66 100 W8        29.85R
PERRY *        CLOUDY    64  64 100 W3        29.85S
$$

IAZ004>006-015-016-023>025-035-036-301200-
   NORTH CENTRAL IOWA

CITY           SKY/WX    TMP DP  RH WIND       PRES   REMARKS
ALGONA *       CLOUDY    66  66 100 NW8       29.84R FOG
CLARION *      CLOUDY    66  66 100 W7        29.83R
ESTHERVILLE    CLOUDY    65  65 100 NW8       29.84S
FORT DODGE *   CLOUDY    66  64  94 NW7       29.85R
MASON CITY     CLOUDY    66  65  96 W12       29.82R
FOREST CITY *  CLOUDY    64  64 100 W5        29.82R
IOWA FALLS *   CLOUDY    66  64  94 W8        29.84R
$$

IAZ007>011-017>019-026>030-037>042-050>054-066-301200-
   NORTHEAST IOWA

CITY           SKY/WX    TMP DP  RH WIND       PRES   REMARKS
CEDAR RAPIDS   LGT RAIN  66  66 100 SW10      29.79F
CHARLES CITY * CLOUDY    66  66 100 W8        29.79R
CLINTON *      MOCLDY    68  66  94 SW6       29.83S
DECORAH *      RAIN      66  66 100 W3        29.77R
DUBUQUE        CLOUDY    68  67  96 SW16      29.79S
MONTICELLO *   CLOUDY    68  66  94 SW6G12    29.79S
OELWEIN *      CLOUDY    66  66 100 SW8       29.79S
WATERLOO       CLOUDY    68  67  96 W8        29.77S
$$

IAZ064-065-067-068-078-301200-
   EAST CENTRAL IOWA

CITY           SKY/WX    TMP DP  RH WIND       PRES   REMARKS
DAVENPORT      MOCLDY    69  66  90 SW6       29.82F
IOWA CITY      MOCLDY    67  65  93 SW9       29.81S
MT. PLEASANT * MOCLDY    68  68 100 SW7       29.85R
MUSCATINE *    MOCLDY    68  66  94 S7        29.82S
QUAD CITIES    MOCLDY    69  66  90 S5        29.81F
$$

IAZ062-063-075>077-085>089-095>099-301200-
   SOUTHEAST IOWA

CITY           SKY/WX    TMP DP  RH WIND       PRES   REMARKS
BURLINGTON     MOCLDY    70  68  93 SW7       29.84R
FAIRFIELD *    PTCLDY    68  64  88 SW8       29.84S
FORT MADISON * PTCLDY    70  70 100 SW7       29.86R
KEOKUK *       CLEAR     70  66  88 SW8       29.85R
OSKALOOSA *      N/A     64  64 100 W5        29.84S
CENTERVILLE *  PTCLDY    66  66 100 SW5       29.87S
OTTUMWA        CLEAR     67  65  93 W6        29.84R
WASHINGTON *   CLEAR     66  66 100 SW9       29.82S
$$

ABBREVIATIONS USED IN REMARKS
   TC - TEMPERATURES IN CELSIUS
  WCI - WIND CHILL INDEX
   HX - HEAT INDEX
  VSB - VISIBILITY
$$




USA.gov is the U.S. government's official web portal to all federal, state and local government web resources and services.